Location: Wald
(31.7579°N, 86.6655°W)
Time: 21:19:48
(UTC+00:00)

SPOT 1/Viking Rocket - Pass Details

Date: 14 July 2020
Orbit: 778 x 793 km, 98.5° (Epoch: 13 August)

Event Time Altitude Azimuth Distance (km) Brightness Sun altitude
Exits shadow 03:26:28 70° 213° (SSW) 829 3.5 -26.2°
Maximum altitude 03:26:54 76° 257° (WSW) 809 3.5 -26.2°
Drops below altitude 10° 03:32:04 10° 344° (NNW) 2,346 6.9 -26.9°
Sets 03:34:25 0° 346° (NNW) 3,280 7.8 -27.2°
